Flag for Germany Weather past 2 weeks in Ansbach, Bavaria, Germany

Now
61 °F

Passing clouds.


Feels Like: 61 °F
Forecast: 63 / 76 °F
Wind: No wind

Location: Ansbach / Katterbach

Current Time: Jul 26, 2014 at 7:52:21 AM

Latest Report: Jul 26, 2014 at 6:58 AM


Visibility: N/A

Pressure: 29.92 "Hg

Humidity: 88%

Dew point: 57 °F

Location of AnsbachLocation

Historic Weather in Ansbach — Graph

°F

Ansbach temperature yesterday

Maximum temperature yesterday: 78 °F (at 3:58 PM)
Minimum temperature yesterday: 55 °F (at 5:58 AM)
Average temperature yesterday: 67 °F

Past Weeks' High & Low Weather Summary

 TemperatureHumidityPressure
High87 °F (Jul 19, 5:58 PM)100% (Jul 12, 5:58 AM)30.21 "Hg (Jul 12, 5:58 AM)
Low55 °F (Jul 16, 4:58 AM)29% (Jul 19, 4:58 PM)29.83 "Hg (Jul 20, 6:58 AM)
Average68 °F68%29.99 "Hg
* Reported Jul 11 5:03 AM — Jul 26 5:58 AM, Ansbach, Weather by CustomWeather, © 2014

Note: Actual official high and low records may vary slightly from our data, if they occured in-between our weather recording intervals... More about our weather records

Advertising

Ansbach weather history for previous 24 hours

 ConditionsComfort  
Time TempWeatherWind HumidityBarometerVisibility
5:58 AM
Jul 26
63 °FPassing clouds.3 mph76%29.89 "HgN/A
4:58 AM61 °FClear.No wind88%29.90 "HgN/A
3:58 AM63 °FPassing clouds.2 mph77%29.90 "HgN/A
2:58 AM63 °FClear.1 mph77%29.91 "HgN/A
1:58 AM63 °FClear.2 mph77%29.92 "HgN/A
12:58 AM64 °FClear.3 mph73%29.91 "HgN/A
11:58 PM
Jul 25
66 °FClear.1 mph68%29.91 "HgN/A
10:58 PM65 °FClear.5 mph70%29.92 "HgN/A
9:58 PM69 °FSunny.2 mph61%29.92 "HgN/A
8:58 PM73 °FSunny.2 mph50%29.90 "HgN/A
7:58 PM74 °FSunny.3 mph52%29.90 "HgN/A
6:58 PM75 °FSunny.5 mph50%29.90 "HgN/A
5:58 PM75 °FScattered clouds.9 mph50%29.90 "HgN/A
4:58 PM77 °FScattered clouds.2 mph42%29.90 "HgN/A
3:58 PM78 °FPassing clouds.5 mph42%29.90 "HgN/A
2:58 PM77 °FScattered clouds.9 mph48%29.92 "HgN/A
1:58 PM73 °FPassing clouds.1 mph57%29.93 "HgN/A
12:58 PM74 °FPassing clouds.3 mph60%29.93 "HgN/A
11:58 AM71 °FSunny.No wind63%29.96 "HgN/A
10:58 AM69 °FPassing clouds.3 mph69%29.96 "HgN/A
9:58 AM64 °FPassing clouds.No wind76%29.96 "HgN/A
8:58 AM63 °FSunny.5 mph77%29.96 "HgN/A
7:58 AM59 °FSunny.2 mph86%29.96 "HgN/A
Weather by CustomWeather, © 2014

See weather overviewHow to use our weather pages